Location: Bukit Nyuki
(2.5885°N, 113.7476°E)
Time: 05:35:57
(UTC+00:00)

IRAS Rocket - Pass Details

Date: 18 May 2021
Orbit: 847 x 878 km, 100.1° (Epoch: 22 June)

Event Time Altitude Azimuth Distance (km) Brightness Sun altitude
Rises 21:10:35 0° 170° (S) 3,426 7.3 -15.7°
Reaches altitude 10° 21:12:57 10° 171° (S) 2,493 6.5 -15.2°
Maximum altitude 21:18:29 75° 256° (WSW) 894 4.2 -13.9°
Drops below altitude 10° 21:24:02 10° 341° (NNW) 2,505 6.7 -12.6°
Sets 21:26:25 0° 343° (NNW) 3,445 7.4 -12.0°
